Погода в Шеркалах

Россия / Ханты-Мансийский автономный округ - Югра     62°45′34″N   65°28′12″E
темп.,
°C
ветер,
м/с
пор.,
м/с
влажн.,
%
обл.,
%
осадки,
мм/ч
давл.,
гПа
погр.,
м
23 апреля, пт
пт2323:00+4ююв71783100 0.0 1028417
02:00+4ююв51387100 0.0 1027335
05:00+3ююв4109081 0.0 1027215
08:00+5ю4987100 0.0 1027318
11:00+5ю4995100 0.6 1027423
14:00+4ю5897100 3.0 1027772
17:00+4ююз4998100 4.8 1027426
20:00+4ю3897100 0.0 1027281
24 апреля, сб
сб2423:00+4ю3697100 0.0 1027179
02:00+3ююз2497100 0.0 102789
05:00+2ююз229744 0.0 102715
08:00+6юз23877 0.0 1027256
11:00+9зюз237032 0.0 1026793
14:00+11зсз115880 0.1 10261298
17:00+11в215779 0.3 1025744
20:00+8вюв237137 0.1 102563
25 апреля, вс
вс2523:00+6в247990 0.1 102586
02:00+5в268290 0.0 1025141
05:00+5в268998 0.1 1025159
08:00+6вюв3885100 0.1 1024455
11:00+8вюв576979 0.2 10241068
14:00+8вюв6870100 0.4 10231046
17:00+9вюв586527 0.4 10211171
20:00+6в512756 0.0 1020574
26 апреля, пн
пн2623:00+4в51185100 0.0 1018309
02:00+5вюв51278100 0.0 1016453
05:00+4вюв51080100 0.0 1014625
08:00+6вюв61076100 0.0 1011982
11:00+4вюв41096100 0.6 1009603
14:00+6в4790100 0.2 1008588
17:00+6в2589100 1.0 1006569
20:00+5зсз2296100 2.5 100591
27 апреля, вт
вт2723:00+3з5997100 7.1 1005550
02:00+3з51296100 3.8 1005783
05:00+2зюз4994100 3.9 1005449
08:00+4зюз597754 0.0 1005555
11:00+8зюз595780 0.0 10041653
14:00+8зюз6105289 0.1 10041918
17:00+10зюз6114663 0.3 10032166
20:00+7зюз495985 0.1 1003303